Время (UTC), дата Ветер
(°,м/с) 
Видим.   Явления Облачность Т
(°С)
Тd
(°С)
f(%) Тe
(°С)
Pmin
(гПа)
dP
(гПа)
Po
(мм)
O2
(г/м3)
Тmin Tmax R s Состояние
почвы
00 01.11.15 110 (В) 20000 м    ясно 
-5.6 -8 83 -8  1043.6  0.1  739  305           
03 01.11.15 120 (ЮВ) 20000 м    ясно 
-5.4 -8.2 81 -8  1043.3  -0.3  739  305  -6         
06 01.11.15 160 (Ю) 20000 м    ясно 
-1.3 -5.8 72 -4  1041.9  -0.4  739  300           
09 01.11.15 080 (В) 20000 м    4/0 верхняя 
[Ci fib]
+3.9 -5.4 51 +3  1039.9  -0.9  738  294           
12 01.11.15 090 (В) 20000 м    9/0 средняя, верхняя 
[Ac trans|Ci]
+5.1 -8.6 36 +4  1038  -1.6  737  292           
15 01.11.15 070 (В) 20000 м    8/0 средняя 
[Ac trans]
+1.2 -6.6 56 +1  1037.6  -1.1  736  296    +5.5       
18 01.11.15 200 (Ю) 20000 м    4/0 средняя, верхняя 
[Ac trans|Ci fib]
+0.4 -6 62 +1  1036.9  -0.9  735  296           
21 01.11.15 220 (ЮЗ) 20000 м    9/0 средняя 
[Ac As]
+1.4 -5.2 61 +1  1035.2  -1.4  734  295           
00 02.11.15 270 (З) 20000 м    8/0 средняя 
[Ac As]
+2.5 -7.5 48 +1  1033.8  -1.1  733  294           
03 02.11.15 280 (З) 20000 м    10/0 средняя 
[Ac und]
+2.3 -8.2 46 +2  1032.7  -1.1  733  293  -0.3         
06 02.11.15 240 (ЮЗ) 20000 м    9/0 средняя 
[Ac trans]
+4.6 -7.7 40 +3  1031.2  -0.9  732  291           
09 02.11.15 270 (З) 6{10}  20000 м    8/0 средняя 
[Ac trans]
+10.2 -10.8 22 +9  1028.7  -1.3  731  285           
12 02.11.15 270 (З) 6{10}  20000 м    8/0 средняя, верхняя 
[Ac trans|Ci fib]
+10.7 -7.6 27 +9  1026.5  -2  729  284           
15 02.11.15 270 (З) 6-10{10}  20000 м    9/0 средняя 
[Ac trans]
+7.8 -0.5 56 +6  1026.1  -0.9  729  285    +11       
18 02.11.15 260 (З) 9-13{15}  20000 м    10/0 средняя 
[Ac und]
+7.3 -9.2 30 +4  1024.9  -1.3  728  286           
21 02.11.15 270 (З) 10-15{15}  20000 м    4/0 средняя 
[Ac trans]
+7.1 -9.2 30 +4  1024.1  -0.7  727  286           
00 03.11.15 270 (З) 10-16{17}  20000 м    8/0 средняя 
[Ac trans]
+7 -0.8 58 +4  1022.7  -1.3  726  285           
03 03.11.15 270 (З) 11-17{17}  20000 м    5/0 средняя 
[Ac trans]
+7.5 -2 51 +4  1021.6  -1  725  285  +6.2         
06 03.11.15 270 (З) 10-15{17}  20000 м    8/0 средняя, верхняя 
[Ac trans|Ci fib]
+10.3 -4.1 36 +8  1020.9  -0.2  725  282           
09 03.11.15 270 (З) 11-16{17}  20000 м    8/0 средняя 
[Ac trans]
+11 -1 43 +9  1019.7  -1  725  281           
12 03.11.15 270 (З) 12-17{18}  20000 м    9/0 средняя 
[Ac trans]
+11.9 +1.6 49 +10  1018.7  -0.8  724  279           
15 03.11.15 270 (З) 12-17{18}  20000 м    10/3 1000 м средняя 
[Sc|Ac und]
+10.1 +0.9 53 +7  1019  724  281    +12.3       
18 03.11.15 280 (З) 14-20{20}  20000 м    9/3 1000 м средняя 
[Sc|Ac trans]
+9.4 +0.3 53 +6  1019.4  0.2  724  282           
21 03.11.15 280 (З) 11-16{23}  20000 м    9/5 300 м средняя 
[Sc|Ac trans]
+8.4 +4.7 78 +5  1020.8  1.2  725  283           
00 04.11.15 290 (З) 9-13{17}  6000 м  дымка  9/6 300 м средняя 
[St|Ac trans]
+6 +3.6 85 +3  1022  0.7  726  285           
03 04.11.15 290 (З) 6-10{13}  3000 м  дымка  10/10 200 м 
[St]
+5.2 +3.5 89 +3  1023.4  1.2  727  287  +5.2         
06 04.11.15 280 (З) 7-11{11}  4000 м  дымка  6/3 300 м средняя 
[St|Ac trans]
+7.8 +4 77 +6  1023.9  0.9  727  284  +5.2         
09 04.11.15 280 (З) 8-15{15}  10 км    4/4 300 м 
[Sc]
+11.5 +5.2 65 +10  1022.5  -0.6  727  280           
12 04.11.15 290 (З) 7-11{15}  20000 м    3/3 600 м 
[Sc]
+12 +4.8 61 +11  1021.6  -0.9  726  279           
15 04.11.15 290 (З) 2{11}  10 км    8/0 верхняя 
[Ci fib]
+8.2 +4.6 78 +8  1022.6  0.3  726  283    +13.1       
18 04.11.15 270 (З) 10 км    3/0 верхняя 
[Ci fib]
+5.5 +3.9 89 +4  1023  0.3  726  286           
21 04.11.15 250 (З) 10 км    10/8 300 м средняя 
[Sc|Ac und]
+7.2 +5.6 90 +6  1022  -0.6  726  284           
00 05.11.15 290 (З) 10 км    10/8 300 м средняя 
[Sc|Ac und]
+8.6 +6.3 85 +9  1021.4  -0.3  726  282           
03 05.11.15 260 (З) 10 км    9/8 300 м средняя 
[Sc|Ac As]
+8.3 +6.1 86 +8  1020.7  -0.7  725  282  +3.5         
06 05.11.15 270 (З) 20000 м    10/5 300 м средняя 
[St|Ac und]
+9.1 +6 81 +8  1020.4  -0.2  725  282           
09 05.11.15 280 (З) 8-12{12}  20000 м    10/10 300 м 
[Sc]
+10.3 +5.8 74 +8  1019.2  -0.9  724  280           
12 05.11.15 270 (З) 8-12{12}  20000 м    6/6 300 м 
[Sc]
+10.8 +6.2 73 +9  1018.1  -0.9  724  279           
15 05.11.15 290 (З) 4{12}  20000 м    1/1 300 м 
[Sc]
+8.5 +6 84 +7  1019.2  0.6  724  282    +11.4       
18 05.11.15 290 (З) 10 км    3/0 средняя 
[Ac trans]
+8.7 +6.7 87 +7  1019.3  0.1  724  282           
21 05.11.15 300 (СЗ) 4000 м  дымка  ясно 
+6.4 +4.4 87 +5  1020.6  0.8  725  285           
00 06.11.15 360 (С) 0100 м  туман  ?/?  
+3.6 +2.8 95 +2  1022.1  0.9  725  288           
03 06.11.15 010 (С) 0050 м  туман  ?/?  
+3.2 +2.4 95 +2  1023.5  1.2  726  289  +3.1         
06 06.11.15 050 (СВ) 0200 м  туман  ?/?  
+3.3 +2.6 95 +3  1024.7  1.1  727  289           
09 06.11.15 080 (В) 0300 м  туман  ?/?  
+3.6 +2.9 95 +3  1024.5  0.1  727  289           
12 06.11.15 060 (СВ) 1600 м  дымка{туман}  10/10 100 м 
[St]
+3.9 +3.2 95 +3  1024.5  727  288           
15 06.11.15 110 (В) 4000 м  дымка  6/6 300 м 
[St]
+1.6 +0.8 94 +2  1026.1  1.1  728  291    +4       
18 06.11.15 150 (ЮВ) 3000 м  дымка  ясно 
+1.1 +0.4 95 1026.8  0.5  728  292           
21 06.11.15 140 (ЮВ) 4000 м  дымка  ясно 
+0.3 -0.4 95 +1  1027  728  293           
00 07.11.15 120 (ЮВ) 0300 м  туман  ясно 
-0.4 -1.1 95 -1  1027.1  728  294           
03 07.11.15 140 (ЮВ) 0100 м  переохл. туман [диам. изморози 3 мм]  ясно 
-1.4 -2.1 95 -3  1027.4  -0.1  728  295  -2.2         
06 07.11.15 120 (ЮВ) 10 км  {туман}  8/8 300 м 
[Sc]
+0.5 -0.2 95 -2  1028.1  1.1  729  293  -2.7         
09 07.11.15 120 (ЮВ) 20000 м    5/1 600 м верхняя 
[Sc|Ci fib]
+7.1 +0.8 64 +5  1026.1  -0.7  729  286           
12 07.11.15 110 (В) 5{10}  20000 м    6/0 верхняя 
[Ci fib]
+8.6 -1.6 49 +7  1025.1  -0.7  728  285           
15 07.11.15 140 (ЮВ) 20000 м    8/0 верхняя 
[Ci fib]
+3.4 -1.4 71 +2  1026.4  0.3  728  290    +9.1       
18 07.11.15 130 (ЮВ) 20000 м    6/0 верхняя 
[Ci fib]
+2.6 -0.4 81 1026.3  -0.3  728  291           
21 07.11.15 140 (ЮВ) 20000 м    5/0 верхняя 
[Ci fib]
+1.5 -0.8 85 -1  1025.9  -0.6  728  292           
00 08.11.15 140 (ЮВ) 20000 м    ясно 
+1.1 -1.8 81 -2  1025.5  -0.5  727  292           
03 08.11.15 140 (ЮВ) 20000 м    ясно 
+1.2 -1.4 83 -2  1025.4  727  292  +0.6         
06 08.11.15 130 (ЮВ) 20000 м    8/0 средняя, верхняя 
[Ac trans|Ci]
+4.1 +0.2 76 +2  1025.4  0.6  728  289           
09 08.11.15 150 (ЮВ) 20000 м    9/0 верхняя 
[Ci]
+8.6 -0.1 54 +7  1023.7  -0.8  727  284           
12 08.11.15 140 (ЮВ) 20000 м    9/0 средняя, верхняя 
[Ac trans|Ci]
+8.4 -0 55 +7  1022.5  -1.2  726  284           
15 08.11.15 150 (ЮВ) 20000 м    9/0 средняя 
[Ac As]
+5.4 +0.9 73 +3  1022  -1  725  286    +9.7       
18 08.11.15 180 (Ю) 20000 м    8/0 средняя 
[Ac trans]
+4.6 +0.8 76 +2  1020.8  -1.3  725  287           
21 08.11.15 150 (ЮВ) 20000 м    6/0 средняя 
[Ac As]
+4.6 +0.2 73 +3  1018.4  -2.3  723  286           
00 09.11.15 110 (В) 20000 м    9/3 1000 м средняя 
[Sc|Ac As]
+4.4 +0.4 75 +5  1017.7  -0.6  722  286           
03 09.11.15 150 (ЮВ) 20000 м    10/3 1000 м средняя 
[Sc|Ac und]
+3.7 +0.5 80 +5  1016  -0.6  721  286  +3.2         
06 09.11.15 160 (Ю) 20000 м    10/3 1000 м средняя 
[Sc|Ac und]
+5.6 +1.4 74 +5  1014.8  -0.8  720  284           
09 09.11.15 110 (В) 20000 м    9/0 средняя 
[Ac trans]
+9.6 +1.4 57 +10  1013  -0.9  720  280           
12 09.11.15 090 (В) 20000 м    8/0 средняя 
[Ac trans]
+10.5 +1.8 55 +10  1011.9  -0.8  719  279           
15 09.11.15 120 (ЮВ) 20000 м    9/0 средняя 
[Ac trans]
+6.7 +1.8 71 +6  1013  0.4  719  283    +11       
18 09.11.15 150 (ЮВ) 20000 м    10/0 средняя 
[Ac und]
+5.5 +1.7 76 +5  1013.7  0.5  720  284           
21 09.11.15 180 (Ю) 20000 м    10/0 средняя 
[Ac und]
+5.1 +2 80 +3  1013.7  0.1  720  284           
00 10.11.15 140 (ЮВ) 20000 м    9/0 средняя 
[Ac trans]
+4.8 +1.5 79 +4  1013.3  -0.4  719  284           
03 10.11.15 270 (З) 20000 м    3/0 средняя 
[Ac trans]
+2.4 +0.9 90 +2  1014.4  0.5  720  287  +1.9         
06 10.11.15 250 (З) 20000 м    ясно 
+7.8 +0.7 61 +8  1013.8  0.5  720  282  +0.4         
09 10.11.15 300 (СЗ) 20000 м    6/0 средняя 
[Ac trans]
+11.6 +1.4 50 +11  1012.1  -0.9  719  278           
12 10.11.15 280 (З) 20000 м    4/4 600 м 
[Sc]
+11.6 +3.1 56 +11  1010.7  -1.4  718  277           
15 10.11.15 250 (З) 20000 м    8/8 600 м 
[Sc]
+9.2 +4.1 70 +8  1010.9  -0.3  718  279    +12.5       
18 10.11.15 260 (З) 6-10{10}  10 км  {дождь}  10/10 300 м 
[Sc]
+7.8 +4.8 81 +6  1010.3  -0.8  718  280           
21 10.11.15 220 (ЮЗ) 4{12}  20000 м  {дождь}  10/5 1000 м средняя 
[Sc|Ac und]
+5.5 +2.2 79 +4  1008.6  -2  716  282           
00 11.11.15 230 (ЮЗ) 6-11{11}  20000 м  {дождь}  10/5 600 м средняя 
[Sc|Ac und]
+7 +3.6 79 +5  1005.6  -2.6  714  280           
03 11.11.15 190 (Ю) 4{11}  20000 м  слаб. дождь  10/5 600 м средняя 
[Sc|Ac und]
+6.4 +3.8 83 +5  1003.4  -2.2  712  280  +5    0.0     
06 11.11.15 220 (ЮЗ) 9-16{16}  4000 м  ливневой дождь  10/8 300 м кучево-дожд. 
[Cb cap]
+6.5 +4.7 88 +3  1001.6  -1.7  711  279           
09 11.11.15 240 (ЮЗ) 9-14{19}  10 км  слаб. ливневой дождь  10/8 300 м кучево-дожд., средняя 
[Cb cap|Ac und]
+7.3 +6 91 +4  998.8  -2.5  709  277           
12 11.11.15 310 (СЗ) 6-10{15}  10 км  слаб. ливневой дождь  10/8 300 м кучево-дожд., средняя 
[Cb cap|Ac und]
+6.6 +5 90 +4  998.6  -0.3  709  278           
15 11.11.15 280 (З) 8-11{13}  20000 м  {ливн. осадки}  10/8 300 м средняя 
[Sc diur, vesp|Ac und]
+5.4 +3.2 86 +2  1002.9  3.9  712  281    +7.9  21     
18 11.11.15 270 (З) 8-13{15}  20000 м  {ливн. осадки}  10/8 300 м средняя 
[Sc diur, vesp|Ac und]
+4.9 +3 87 +2  1005.7  2.5  714  282           
21 11.11.15 270 (З) 11-17{20}  20000 м  в посл. час ливневой дождь  10/8 300 м кучево-дожд., средняя 
[Cb cap|Ac und]
+5.4 +3.5 88 +2  1005.9  0.3  714  282           
00 12.11.15 270 (З) 10-15{20}  20000 м  в посл. час ливневой дождь  10/8 300 м кучево-дожд., средняя 
[Cb cap|Ac und]
+5 +3 87 +1  1006  714  282           
03 12.11.15 280 (З) 10-16{19}  20000 м  слаб. ливневой дождь  10/8 300 м кучево-дожд., средняя 
[Cb cap|Ac und]
+5.1 +3.2 87 +1  1007.7  1.7  715  282  +3.8       
06 12.11.15 280 (З) 10-16{16}  20000 м  {ливн. осадки}  10/8 300 м кучево-дожд., средняя 
[Cb calv|Ac und]
+4.9 +2.5 84 +1  1011.8  3.9  718  284           
09 12.11.15 270 (З) 11-16{17}  20000 м    10/8 600 м кучево-дожд., средняя 
[Cb calv|Ac und]
+5.8 +1.2 72 +2  1013.6  1.8  720  284           
12 12.11.15 270 (З) 12-18{18}  20000 м  в посл. час ливневой дождь  8/5 600 м кучево-дожд., средняя 
[Cb calv|Ac trans]
+8.2 +2.8 69 +5  1014.1  0.9  720  281           
15 12.11.15 300 (СЗ) 8-12{19}  20000 м    9/5 600 м кучево-дожд., средняя 
[Cb calv|Ac trans]
+5.5 +1.6 76 +2  1017.6  2.8  722  285    +8.2  0.0     
18 12.11.15 270 (З) 8-12{15}  20000 м    9/6 300 м кучево-дожд., средняя 
[Cb calv|Ac As]
+5.3 +2.5 82 +2  1019.6  1.9  724  286           
21 12.11.15 270 (З) 8-12{14}  20000 м    10/8 300 м кучево-дожд., средняя 
[Cb calv|Ac und]
+5.3 +3.6 89 +2  1020.2  0.5  724  286           
00 13.11.15 250 (З) 7-10{13}  20000 м    6/4 300 м кучево-дожд., средняя 
[Cb calv|Ac trans]
+6.3 +3.6 83 +4  1018.7  -1.2  723  284           
03 13.11.15 260 (З) 13-19{19}  20000 м  {ливн. осадки}  4/3 600 м кучево-дожд., средняя 
[Cb calv|Ac und]
+8.9 +4.9 76 +6  1014.2  -3.8  720  280  +5.2    0.0     
06 13.11.15 250 (З) 14-19{22}  20000 м  слаб. ливневой дождь  10/5 300 м кучево-дожд., средняя 
[Cb cap|Ac und]
+9.5 +5.5 76 +6  1012.2  -1.8  719  279           
09 13.11.15 250 (З) 15-21{24}  10 км  слаб. ливневой дождь  10/6 300 м кучево-дожд., средняя 
[Cb cap|Ac und]
+9.8 +7 83 +6  1008.6  -3.3  717  277           
12 13.11.15 280 (З) 11-18{21}  10 км  {ливн. осадки}  9/5 300 м кучево-дожд., средняя 
[Cb cap|Ac As]
+8.4 +4.8 78 +5  1010.9  1.9  718  280           
15 13.11.15 280 (З) 11-16{19}  20000 м  слаб. ливневой дождь  10/6 600 м кучево-дожд., средняя 
[Cb cap|Ac und]
+6.6 +4 83 +3  1013.9  2.5  720  283    +10.4     
18 13.11.15 280 (З) 7-10{16}  20000 м  {ливн. осадки}  10/8 300 м кучево-дожд., средняя 
[Cb calv|Ac und]
+5.3 +3.9 91 +3  1017.6  3.2  722  285           
21 13.11.15 360 (С) 3{10}  5000 м  дымка{ливн. осадки}  10/10 200 м 
[St]
+1.4 +0.5 94 1023.3  4.6  726  291           
00 14.11.15 300 (СЗ) 20000 м  {ливн. осадки}  10/10 200 м 
[St]
+0.9 -0.7 89 -1  1025.5  1.9  727  292           
03 14.11.15 280 (З) 6{10}  4000 м  дымка  10/8 100 м средняя 
[St|Ac und]
+0.4 -0.6 93 -3  1026.3  0.7  728  293  +0.1       
06 14.11.15 260 (З) 8-11{11}  10 км  {туман}  9/9 300 м 
[Sc]
+1.4 +0.3 92 -3  1026.6  0.5  728  292           
09 14.11.15 270 (З) 6-10{12}  20000 м    10/8 300 м средняя 
[Sc|Ac und]
+4.2 +1.5 83 +2  1025.8  -0.2  728  289           
12 14.11.15 280 (З) 6{11}  20000 м    10/4 300 м средняя 
[Sc|Ac und]
+5.6 +1.1 73 +3  1024.3  -1.1  727  287           
15 14.11.15 270 (З) 3{11}  20000 м    9/9 1000 м 
[Sc]
+4.9 +1 76 +4  1023.8  -0.6  727  287    +5.7       
18 14.11.15 220 (ЮЗ) 20000 м    9/9 1000 м 
[Sc]
+3 -0.3 79 +2  1021.5  -2.5  725  289           
21 14.11.15 170 (Ю) 20000 м    10/0 средняя 
[Ac und]
+1.7 -0.9 83 +1  1019.2  -2.4  723  290           
00 15.11.15 150 (ЮВ) 20000 м    8/0 верхняя 
[Ci fib]
+2.7 -0.5 79 +1  1015.8  -3.1  721  288           
03 15.11.15 180 (Ю) 20000 м    10/0 средняя, верхняя 
[Ac trans|Ci fib]
+3.2 -0.3 78 +1  1013.1  -2.4  719  286  +1.2         
06 15.11.15 200 (Ю) 20000 м    10/0 средняя, верхняя 
[Ac trans|Cs]
+5.5 -0.2 67 +5  1011.7  -1  718  284           
09 15.11.15 290 (З) 5{12}  10 км  слаб. ливневой дождь  10/5 300 м кучево-дожд., средняя 
[Cb cap|Ac und]
+4.7 +2.9 88 +3  1012.7  0.9  719  284           
12 15.11.15 240 (ЮЗ) 5{11}  10 км  слаб. ливневой дождь  10/8 300 м кучево-дожд., средняя 
[Cb cap|Ac und]
+1.3 +0 91 -1  1014.6  720  288           
15 15.11.15 250 (З) 20000 м  {ливн. осадки}  10/8 200 м кучево-дожд., средняя 
[Cb calv|Ac und]
+2.3 +1 91 1015  0.7  720  287    +8.2     
18 15.11.15 260 (З) 20000 м  {ливн. осадки}  10/8 300 м кучево-дожд., средняя 
[Cb calv|Ac und]
+2.2 +0.3 87 1015  720  288           
21 15.11.15 250 (З) 20000 м    3/0 средняя 
[Ac trans]
+1.6 -1.7 79 -2  1015.8  0.6  721  289           
00 16.11.15 240 (ЮЗ) 20000 м    3/0 средняя 
[Ac trans]
+0.9 -2.2 80 -2  1016.1  0.6  721  290           
03 16.11.15 240 (ЮЗ) 20000 м    ясно 
+0.4 -3.2 77 -2  1016  0.1  721  290  +0.4         
06 16.11.15 250 (З) 20000 м    8/8 1000 м 
[Sc]
+3.9 -1.3 69 +2  1015.3  721  286           
09 16.11.15 220 (ЮЗ) 20000 м    9/3 600 м кучево-дожд., средняя 
[Cb calv|Ac trans]
+7.1 +0.8 64 +6  1013.3  -1.3  720  282           
12 16.11.15 150 (ЮВ) 20000 м    10/3 600 м кучево-дожд., средняя 
[Cb calv|Ac und]
+5.4 +0 68 +3  1011.8  -1.7  718  284           
15 16.11.15 120 (ЮВ) 20000 м    10/3 1000 м средняя 
[Sc|Ac und]
+4.6 -0.8 68 +3  1009.7  -2.2  717  284    +7.3       
18 16.11.15 130 (ЮВ) 6{10}  20000 м  в посл. час ливневой дождь  10/8 600 м кучево-дожд., средняя 
[Cb calv|Ac und]
+5 -1.9 61 +2  1007.2  -2.3  715  283           
21 16.11.15 110 (В) 20000 м    10/4 600 м кучево-дожд., средняя 
[Cb calv|Ac und]
+4.2 -1.5 66 +2  1005  -2.2  713  283           
00 17.11.15 280 (З) 7-10{15}  20000 м  слаб. ливневой дождь  10/6 600 м кучево-дожд., средняя 
[Cb cap|Ac und]
+3 +1.1 87 1008.3  2.9  715  285           
03 17.11.15 220 (ЮЗ) 3{10}  10 км  слаб. ливневой дождь  10/8 300 м кучево-дожд., средняя 
[Cb cap|Ac und]
+2.6 +1.1 90 +1  1007.6  -0.8  715  285  +1.9    0.4     
06 17.11.15 260 (З) 12-18{18}  4000 м  слаб. ливневой дождь  10/8 200 м кучево-дожд., средняя 
[Cb cap|Ac und]
+0.7 -0.5 92 -5  1011.4  3.2  717  288  +0.6         
09 17.11.15 270 (З) 12-18{19}  2000 м  слаб. ливневой снег  10/8 200 м кучево-дожд., средняя 
[Cb cap|Ac und]
+0.5 -0.6 92 -5  1015.8  4.1  720  290           
12 17.11.15 280 (З) 8-13{19}  2000 м  слаб. ливневой снег  10/8 100 м кучево-дожд., средняя 
[Cb cap|Ac und]
-0.4 -1.3 94 -5  1020.6  4.3  724  292           
15 17.11.15 280 (З) 6-10{14}  10 км  {ливн. осадки}  10/5 300 м средняя 
[St|Ac und]
-0.7 -1.9 92 -4  1022.8  4.3  725  293    +3.6       
18 17.11.15 280 (З) 3{12}  20000 м  {ливн. осадки}  9/5 600 м средняя 
[Sc diur, vesp|Ac trans]
-1.1 -3 87 -3  1024.2  1.2  726  294           
21 17.11.15 290 (З) 20000 м    10/10 600 м 
[Sc]
-1.2 -3.2 86 -4  1023.9  -0.3  726  294           
00 18.11.15 290 (З) 20000 м    10/10 600 м 
[Sc]
-1.3 -3.4 86 -3  1024.6  0.6  726  294           
03 18.11.15 260 (З) 20000 м    10/6 600 м средняя 
[Sc|Ac und]
-1.5 -3.6 86 -3  1024.6  726  295  -1.7         
06 18.11.15 280 (З) 20000 м    10/8 300 м средняя 
[St|Ac und]
-1.2 -3.6 84 -2  1025.5  0.9  727  295           
09 18.11.15 330 (СЗ) 20000 м    10/6 600 м средняя 
[Sc|Ac und]
+0.3 -4.5 70 +1  1024.5  -0.7  726  293           
12 18.11.15 тихо ()   20000 м    6/6 600 м 
[Sc]
+1.7 -4.2 65 +2  1023.4  -0.7  726  291           
15 18.11.15 110 (В) 20000 м    4/4 600 м 
[Sc]
-1.8 -4.4 82 -5  1024.8  0.7  726  295    +2.6       
18 18.11.15 150 (ЮВ) 20000 м    5/0 средняя 
[Ac trans]
-1.8 -4.1 84 -4  1023.9  -0.8  726  295           
21 18.11.15 140 (ЮВ) 20000 м    6/0 средняя 
[Ac trans]
-1.5 -3.2 88 -3  1023  -0.8  725  294           
00 19.11.15 180 (Ю) 20000 м    3/0 средняя 
[Ac trans]
-1 -3 86 -2  1022  -0.8  725  293           
03 19.11.15 180 (Ю) 20000 м    8/0 средняя 
[Ac trans]
-0.5 -2.7 85 -1  1021.2  -0.6  724  293  -2.3         
06 19.11.15 100 (В) 20000 м    9/0 средняя 
[Ac trans]
+0.7 -1.4 86 +1  1021.1  0.1  724  291           
09 19.11.15 140 (ЮВ) 20000 м    9/0 средняя 
[Ac trans]
+4.3 -0.5 71 +3  1019.7  -0.7  724  287           
12 19.11.15 140 (ЮВ) 20000 м    9/0 средняя, верхняя 
[Ac trans|Ci fib]
+5.2 -1.1 64 +4  1019.3  -0.2  724  286           
15 19.11.15 150 (ЮВ) 20000 м    10/0 средняя 
[Ac und]
+3 -0.9 76 +1  1020.4  0.6  724  289    +6.7       
18 19.11.15 040 (СВ) 20000 м    10/3 1000 м средняя 
[Sc|Ac und]
+3.5 -2.1 67 +4  1021  0.7  725  288           
21 19.11.15 190 (Ю) 20000 м  слаб. ливневой дождь  10/5 600 м кучево-дожд., средняя 
[Cb calv|Ac und]
+2.7 -0.4 80 +1  1021  -0.2  724  289           
00 20.11.15 220 (ЮЗ) 20000 м  в посл. час ливневой дождь  9/5 1000 м кучево-дожд., средняя 
[Cb calv|Ac trans]
+5 -1.6 62 +3  1020.5  724  287           
03 20.11.15 230 (ЮЗ) 20000 м    10/4 1000 м кучево-дожд., средняя 
[Cb calv|Ac und]
+5.9 +0.7 69 +5  1020.2  -0.1  724  285  +2.2       
06 20.11.15 190 (Ю) 20000 м    10/3 1000 м средняя 
[Sc|Ac und]
+7.1 +2.4 72 +7  1020.6  0.6  725  284           
09 20.11.15 250 (З) 20000 м    10/4 1000 м средняя 
[Sc|Ac und]
+10.3 +3.6 63 +9  1018.8  -1.1  724  280           
12 20.11.15 180 (Ю) 20000 м    9/0 средняя, верхняя 
[Ac trans|Ci fib]
+12.1 +2.7 53 +12  1017  -1.4  723  278           
15 20.11.15 160 (Ю) 20000 м    8/0 средняя 
[Ac trans]
+8.3 +3 69 +7  1017  -0.7  722  282    +12.7       
18 20.11.15 150 (ЮВ) 20000 м    4/0 средняя 
[Ac trans]
+6.9 +1.4 68 +6  1015.5  -1.7  721  283           
21 20.11.15 180 (Ю) 20000 м    4/0 верхняя 
[Ci fib]
+6.6 +0.1 63 +4  1013.4  -2  720  283           
00 21.11.15 140 (ЮВ) 20000 м    6/0 верхняя 
[Ci fib]
+5.2 -0.4 67 +4  1011.3  -2.2  718  284           
03 21.11.15 130 (ЮВ) 20000 м    6/0 средняя 
[Ac trans]
+4.7 -1.5 64 +4  1010.7  -0.7  717  284  +4.7         
06 21.11.15 190 (Ю) 20000 м    9/4 600 м средняя, верхняя 
[Sc|Ac As|Ci]
+11 -6.9 28 +11  1010.4  0.9  718  279           
09 21.11.15 190 (Ю) 20000 м    10/4 600 м средняя, верхняя 
[Sc|Ac As|Ci]
+16.5 -4.3 24 +17  1009.2  0.1  718  273           
12 21.11.15 110 (В) 20000 м    9/4 600 м средняя 
[Sc|Ac trans]
+15.3 -4.8 25 +16  1008.8  -0.6  717  274           
15 21.11.15 170 (Ю) 20000 м    8/0 средняя, верхняя 
[Ac lent|Ci sp]
+11.6 -3.9 34 +11  1009.7  0.2  718  278    +17.1       
18 21.11.15 060 (СВ) 20000 м    9/0 средняя, верхняя 
[Ac trans|Ci fib]
+10.5 -1.9 42 +11  1010.2  0.3  718  279           
21 21.11.15 310 (СЗ) 20000 м    6/0 средняя 
[Ac lent]
+11.8 -7 26 +12  1011.6  1.5  719  278           
00 22.11.15 170 (Ю) 20000 м    6/0 средняя, верхняя 
[Ac trans|Ci sp]
+8.1 -7.2 33 +8  1013.4  720  282           
03 22.11.15 180 (Ю) 20000 м    4/0 средняя 
[Ac trans]
+7.8 -5.9 37 +8  1013.8  0.3  720  283  +6         
06 22.11.15 170 (Ю) 20000 м    8/0 верхняя 
[Ci fib]
+13.3 -3.9 30 +13  1014.2  1.4  721  277           
09 22.11.15 140 (ЮВ) 20000 м    8/0 верхняя 
[Ci fib]
+17.9 -1.4 27 +18  1013.2  0.1  721  273           
12 22.11.15 110 (В) 20000 м    8/0 верхняя 
[Ci fib]
+18.1 -1.5 26 +19  1013.4  0.3  721  273           
15 22.11.15 100 (В) 20000 м    8/0 средняя, верхняя 
[Ac trans|Ci fib]
+12.4 -4.4 31 +14  1016  1.4  722  279    +19.4       
18 22.11.15 320 (СЗ) 20000 м    10/0 верхняя 
[Ci fib]
+11.7 -5.5 30 +12  1017.4  1.2  723  280           
21 22.11.15 350 (С) 20000 м    8/0 верхняя 
[Ci fib]
+12.7 -2.2 35 +13  1018.2  724  279           
00 23.11.15 350 (С) 20000 м    6/0 верхняя 
[Ci fib]
+11.2 -3.4 36 +11  1020.4  1.7  725  281           
03 23.11.15 200 (Ю) 20000 м    6/0 верхняя 
[Ci fib]
+8.8 -3.5 42 +8  1021.9  726  284  +5.9         
06 23.11.15 160 (Ю) 20000 м    8/0 верхняя 
[Ci fib]
+14.5 -2.9 30 +15  1022.4  1.5  727  278  +5.9         
09 23.11.15 160 (Ю) 20000 м    6/0 верхняя 
[Ci fib]
+18.2 -2.6 24 +19  1021.7  0.1  727  275           
12 23.11.15 140 (ЮВ) 20000 м    6/0 верхняя 
[Ci fib]
+19.2 -4.7 19 +20  1022.1  0.6  727  274           
15 23.11.15 180 (Ю) 20000 м    3/0 верхняя 
[Ci fib]
+11.4 -3.6 35 +11  1024.1  0.6  728  282    +19.8       
18 23.11.15 220 (ЮЗ) 20000 м    4/0 верхняя 
[Ci fib]
+10.7 -4.6 34 +10  1025  0.7  728  283           
21 23.11.15 200 (Ю) 20000 м    4/0 верхняя 
[Ci fib]
+11.8 -4.5 32 +12  1025  0.2  728  282           
00 24.11.15 270 (З) 20000 м    6/0 верхняя 
[Ci fib]
+12.1 -9.8 21 +13  1025.8  0.8  729  282           
03 24.11.15 290 (З) 20000 м    5/0 верхняя 
[Ci fib]
+8.5 -4.5 39 +9  1026.3  -0.2  729  285  +8         
06 24.11.15 250 (З) 20000 м    8/0 верхняя 
[Ci fib]
+15 +3.1 45 +16  1026.2  1.2  730  278  +6.4         
09 24.11.15 110 (В) 20000 м    10/0 средняя, верхняя 
[Ac trans|Ci fib]
+15.5 -0.1 34 +17  1025.2  -0.9  729  278           
12 24.11.15 100 (В) 20000 м    9/0 средняя, верхняя 
[Ac trans|Ci fib]
+14.4 +3.5 48 +15  1024.1  -1.2  728  278           
15 24.11.15 110 (В) 20000 м    8/0 средняя, верхняя 
[Ac trans|Ci fib]
+8.7 +3.8 71 +8  1023.9  -1.2  727  283    +15.9       
18 24.11.15 170 (Ю) 20000 м    8/0 верхняя 
[Ci fib]
+7 +2.4 73 +6  1022.7  -1.5  726  285           
21 24.11.15 170 (Ю) 20000 м    8/0 верхняя 
[Ci fib]
+9.4 -4 39 +8  1020.5  -1.7  725  283           
00 25.11.15 200 (Ю) 20000 м    6/0 верхняя 
[Ci fib]
+9.7 -7.5 29 +9  1019.2  -1.2  724  282           
03 25.11.15 260 (З) 20000 м    6/0 верхняя 
[Ci fib]
+10.3 -4 36 +10  1018.1  -0.9  723  281  +6.3         
06 25.11.15 220 (ЮЗ) 20000 м    8/0 средняя 
[Ac As]
+12.2 -3.2 34 +13  1017.7  0.1  723  279           
09 25.11.15 150 (ЮВ) 20000 м    8/0 средняя, верхняя 
[Ac trans|Ci fib]
+16.5 -1.9 28 +17  1015.3  -1.5  722  275           
12 25.11.15 120 (ЮВ) 20000 м    8/0 средняя, верхняя 
[Ac trans|Ci]
+15.7 -2.2 29 +16  1014.3  -1  721  275           
15 25.11.15 140 (ЮВ) 20000 м    9/0 средняя 
[Ac As]
+11.1 +1.5 52 +11  1014.7  -1  721  279    +16.9       
18 25.11.15 160 (Ю) 20000 м    8/0 средняя, верхняя 
[Ac As|Ci]
+10 +0 50 +9  1013.4  -1.4  720  280           
21 25.11.15 130 (ЮВ) 20000 м    9/0 средняя 
[Ac As]
+10.8 -0.9 44 +10  1011.9  -1.3  719  279           
00 26.11.15 160 (Ю) 20000 м    8/0 верхняя 
[Ci]
+10.4 -5 33 +10  1011.4  -0.6  719  279           
03 26.11.15 300 (СЗ) 20000 м    3/0 средняя 
[Ac trans]
+11.1 -8 25 +11  1010.2  -1  718  279  +8.5         
06 26.11.15 020 (С) 20000 м    6/0 верхняя 
[Ci fib]
+12.7 -3.9 31 +14  1010.8  0.8  719  277  +7.6         
09 26.11.15 320 (СЗ) 20000 м    6/0 верхняя 
[Ci fib]
+16.4 -5 23 +17  1009.4  -0.6  718  273           
12 26.11.15 050 (СВ) 20000 м    8/0 средняя, верхняя 
[Ac trans|Ci fib]
+13.7 -0.1 39 +14  1009.7  -0.2  718  275           
15 26.11.15 010 (С) 20000 м    8/0 средняя 
[Ac trans]
+9 +1.6 60 +9  1011.8  1.2  719  280    +17.2       
18 26.11.15 080 (В) 20000 м    8/0 средняя 
[Ac trans]
+6.2 +0.7 68 +7  1013.8  1.3  720  283           
21 26.11.15 100 (В) 20000 м    8/0 средняя 
[Ac trans]
+6.3 +2.3 76 +6  1014.4  0.6  720  283           
00 27.11.15 050 (СВ) 0100 м  туман  ?/?  
+5.5 +4.6 94 +5  1015.9  1.3  721  284           
03 27.11.15 110 (В) 0100 м  туман  ?/?  
+4.6 +3.9 95 +3  1016.6  0.5  722  285  +4.6         
06 27.11.15 090 (В) 0100 м  слаб. морось{туман}  н/о 
+4.2 +3.5 95 +3  1018.2  1.5  723  286  +4.2         
09 27.11.15 100 (В) 0100 м  туман{морось}  н/о 
+4.3 +3.6 95 +3  1019.1  0.8  723  286           
12 27.11.15 120 (ЮВ) 0100 м  слаб. дождь{морось}  н/о 
+4.7 +4 95 +4  1018.8  -0.2  723  286           
15 27.11.15 050 (СВ) 0100 м  туман{дождь}  н/о 
+4.3 +3.6 95 +3  1020  724  287    +5     
18 27.11.15 100 (В) 0100 м  туман{дождь}  ?/?  
+4.1 +3.4 95 +4  1020.7  0.6  724  287           
21 27.11.15 070 (В) 0100 м  туман{дождь, снег}  ?/?  
+4.3 +3.6 95 +3  1021.2  0.5  725  287           
00 28.11.15 110 (В) 0100 м  туман{дождь}  ?/?  
+4 +3.3 95 +3  1021.5  0.2  725  287           
03 28.11.15 120 (ЮВ) 0300 м  слаб. дождь{туман}  ?/?  
+3.1 +2.4 95 1021.8  0.1  725  288  +3.1    0.5     
06 28.11.15 150 (ЮВ) 4000 м  дымка{дождь, туман}  8/3 200 м средняя 
[St|Ac trans]
+2.7 +2 95 1021.6  -0.3  725  289  +2.4         
09 28.11.15 110 (В) 10 км    8/5 200 м средняя 
[St|Ac trans]
+4.6 +4 96 +2  1020.4  -0.7  724  286           
12 28.11.15 140 (ЮВ) 10 км    9/6 300 м средняя 
[St|Ac trans]
+4.9 +2.6 85 +2  1019.4  -1  724  286           
15 28.11.15 130 (ЮВ) 4000 м  дымка  10/10 100 м 
[St]
+2.7 +1.5 92 1019.4  -0.4  723  288    +5.1  0.0     
18 28.11.15 140 (ЮВ) 7-11{11}  4000 м  дымка  10/10 200 м 
[St]
+2.5 +1.4 92 -1  1018.1  -1.3  722  288           
21 28.11.15 140 (ЮВ) 9-11{13}  10 км    10/10 100 м 
[St]
+2.8 +1.7 92 -1  1015.9  -2.1  721  287           
00 29.11.15 130 (ЮВ) 11-14{14}  10 км    10/8 200 м средняя 
[St|Ac und]
+3.2 +1.9 91 -1  1014.1  -1.6  720  286           
03 29.11.15 130 (ЮВ) 8-10{14}  20000 м    10/6 200 м средняя 
[St|Ac und]
+3.2 +2.1 92 1013.6  -0.5  719  286  +2.4         
06 29.11.15 150 (ЮВ) 7-10{10}  10 км    10/10 100 м 
[St]
+3.6 +2.3 91 1014  0.5  720  286           
09 29.11.15 120 (ЮВ) 7{10}  20000 м  {морось}  10/10 200 м 
[St]
+5.2 +3.1 86 +2  1012.6  -1.1  719  284           
12 29.11.15 120 (ЮВ) 20000 м  {морось}  10/3 300 м средняя 
[St|Ac und]
+5.6 +3.4 86 +4  1013.4  0.8  719  283           
15 29.11.15 080 (В) 10 км  в посл. час ливневой дождь  10/4 600 м кучево-дожд., средняя 
[Cb cap|Ac und]
+4.8 +3.7 93 +6  1013.4  0.8  719  284    +6  0.4     
18 29.11.15 210 (ЮЗ) 10 км  {ливн. осадки}  10/3 1000 м средняя 
[Sc|Ac und]
+4.7 +3.9 94 +6  1016.3  0.8  721  285           
21 29.11.15 280 (З) 20000 м    10/6 300 м средняя 
[St|Ac und]
+8.2 +6.3 88 +7  1016.5  0.9  722  281           
00 30.11.15 280 (З) 20000 м    10/5 600 м средняя 
[Sc|Ac und]
+7.5 +4.6 82 +7  1017.5  0.7  723  283           
03 30.11.15 140 (ЮВ) 20000 м  {дождь}  6/3 600 м средняя 
[Sc|Ac As]
+6.1 +4 86 +5  1017.8  0.1  723  284  +3.9    0.0     
06 30.11.15 180 (Ю) 20000 м  {дождь}  8/8 1000 м 
[Sc]
+7 +5.4 90 +8  1017.9  0.3  723  283           
09 30.11.15 240 (ЮЗ) 20000 м    10/6 1000 м кучево-дожд., средняя 
[Cb calv|Ac und]
+7.6 +5.6 87 +8  1017.9  723  282           
12 30.11.15 260 (З) 4{10}  20000 м  в посл. час ливневой дождь  10/6 600 м кучево-дожд., средняя 
[Cb calv|Ac und]
+6.3 +4.9 91 +5  1017.8  -0.3  723  284           
15 30.11.15 240 (ЮЗ) 20000 м    10/6 700 м кучево-дожд., средняя 
[Cb calv|Ac und]
+6.1 +4.8 91 +6  1018  -0.1  723  284    +8.1     
18 30.11.15 тихо ()   20000 м    10/4 1000 м средняя 
[Sc diur, vesp|Ac und]
+5.8 +4.7 93 +6  1017.4  -0.6  722  284           
21 30.11.15 030 (СВ) 20000 м    10/6 300 м 
[St]
+5.8 +4.8 93 +7  1016.8  -0.6  722  284           
00 01.12.15 340 (С) 0600 м  слаб. морось{туман}  ?/?  
+5.4 +4.6 95 +5  1016.2  -0.6  721  284           
03 01.12.15 340 (С) 4000 м  слаб. дождь{морось}  10/10 600 м 
[Sc]
+4.1 +3.4 95 +2  1016.5  -0.1  721  286  +4.1       
06 01.12.15 190 (Ю) 20000 м  слаб. ливневой дождь  10/8 600 м кучево-дожд., средняя 
[Cb cap|Ac und]
+3.4 +2.3 93 +3  1017.2  0.6  722  287  +3.4         
09 01.12.15 230 (ЮЗ) 20000 м  {ливн. осадки}  8/5 300 м кучево-дожд., средняя 
[Cb calv|Ac trans]
+6.4 +3.7 83 +5  1016.3  -0.2  722  283           
12 01.12.15 280 (З) 6-10{13}  20000 м  {ливн. осадки}  5/5 600 м кучево-дожд. 
[Cb calv]
+8.1 +2.3 67 +6  1014.9  -1.1  721  282           
15 01.12.15 290 (З) 5{10}  20000 м  слаб. ливневой дождь  10/6 600 м кучево-дожд., средняя 
[Cb cap|Ac und]
+5.7 +2.7 81 +4  1015.7  0.3  721  284    +8.9     
18 01.12.15 250 (З) 20000 м  {ливн. осадки}  10/6 600 м кучево-дожд., средняя 
[Cb calv|Ac und]
+4.9 +2.8 86 +4  1015.7  0.1  721  285           
21 01.12.15 150 (ЮВ) 20000 м    9/4 1000 м средняя 
[Sc diur, vesp|Ac trans]
+3.9 +2.1 88 +2  1013.4  -2.3  719  285           
00 02.12.15 140 (ЮВ) 20000 м    10/0 средняя, верхняя 
[Ac trans|Ci fib]
+4.1 +0.6 78 +2  1010.6  -2.6  717  285    -0.3       
03 02.12.15 160 (Ю) 6-10{10}  20000 м    8/0 средняя, верхняя 
[Ac trans|Ci fib]
+4.3 -1.3 67 +2  1007.7  -2.8  715  284  +3.3    0.0     
Время (UTC), дата Ветер
(°,м/с) 
Видим.   Явления Облачность Т
(°С)
Тd
(°С)
f(%) Тe
(°С)
Pmin
(гПа)
dP
(гПа)
Po
(мм)
O2
(г/м3)
Тmin Tmax R s Состояние
почвы